Location: Potomac
(46.8816°N, 113.5795°W)
Time: 10:58:19
(UTC+00:00)

CUTE 1.7 + AOD 2 - Visible Passes

Search period start: 30 June 2022 00:00
Search period end: 10 July 2022 00:00
Orbit: 590 x 607 km, 97.7° (Epoch: 29 June)

Date Brightness Start Highest point End Pass type
(mag) Time Alt. Az. Time Alt. Az. Time Alt. Az.
01 Jul ? 10:13:40 10° ENE 10:15:22 12° E 10:17:04 10° ESE visible
02 Jul ? 10:23:44 10° NE 10:26:18 16° E 10:28:51 10° SE visible
03 Jul ? 10:34:04 10° NE 10:37:12 20° E 10:40:18 10° SE visible
04 Jul ? 10:44:34 10° NE 10:48:06 26° E 10:51:35 10° SSE visible
05 Jul ? 10:55:09 10° NNE 10:58:58 33° E 11:02:45 10° SSE visible
06 Jul ? 11:05:48 10° NNE 11:09:48 42° E 11:13:47 10° S visible
